sat.trackr.live / text

‹ back to catalog

STARLINK-34586

NORAD 64950 · 2025-158U

PAYLOAD ACTIVE UNKNOWN

§ Identity

Operator
Country
US
Launch date
2025-07-27
Launch site
AFWTR
Launch vehicle
Mass (kg)
RCS (m²)

Purposes: comms

External: N2YO · Heavens-Above · Gunter

§ Orbital elements

Epoch: 2026-05-25T02:45:14.667840Z

Period
95.64 min
Inclination
97.4534°
Eccentricity
0.0001765
Mean motion
15.05649498 rev/d
Perigee alt
548.3 km
Apogee alt
550.7 km
Semi-major
6,927.6 km
B*
-3.0615e-6
RAAN
9.0063°
Arg perigee
115.9125°
Mean anomaly
244.2284°
Rev number
4,685

§ Raw data

STARLINK-345861 64950U 25158U   26145.11475310 -.00000103  00000+0 -30615-5 0  99902 64950  97.4534   9.0063 0001765 115.9125 244.2284 15.05649498 46859

JSON: /api/v1/satellites/64950 · /tle

For live sub-satellite position, see the globe view (requires WebGL).

§ Visibility from observer

Set your observer location to see the next 7 days of passes ≥ 10°. The values pass through the URL so the page stays shareable.

No JS? Fill the form by hand. The geolocation button needs JavaScript.